Location: Castelgaillard
(43.3540°N, 0.9011°E)
Time: 01:40:47
(UTC+00:00)

Daily predictions for brighter satellites

Satellite Brightness Start Highest point End
(mag) Time Altitude Azimuth Time Altitude Azimuth Time Altitude Azimuth
Cosmos 1464 Rocket 4.2 00:08:47 59° E 00:08:47 59° E 00:14:44 10° NNE
Cosmos 2333 4.4 00:04:58 10° NNW 00:10:14 72° N 00:10:14 72° N
Lacrosse 4 Rocket 3.2 00:13:02 30° NNE 00:13:02 30° NNE 00:15:13 10° NNE
Cosmos 2233 Rocket 4.4 00:10:46 53° W 00:10:58 53° WNW 00:17:10 10° N
Cosmos 2219 Rocket 2.6 00:05:41 10° NNW 00:11:13 58° ENE 00:11:13 58° ENE
Cosmos 968 Rocket 4.0 00:19:13 56° N 00:19:13 56° N 00:23:15 10° NNE
Cosmos 2322 Rocket 3.9 00:14:38 10° NW 00:17:43 22° W 00:17:43 22° W
COSMOS 2428 2.9 00:23:42 10° NNW 00:29:11 70° NE 00:29:11 70° NE
SL-16 R/B 4.0 00:28:37 21° ESE 00:31:24 30° ENE 00:36:43 10° N
CENTAUR R/B 4.4 00:27:24 11° W 00:32:27 28° NNW 00:38:35 10° NNE
Nadezhda 4 Rocket 4.1 00:28:39 10° N 00:34:56 63° E 00:35:18 62° E
Cosmos 2360 Rocket 3.5 00:29:56 10° NW 00:33:24 29° WNW 00:33:24 29° WNW
Cosmos 2034 Rocket 4.0 00:35:41 68° E 00:35:43 68° E 00:41:59 10° NNE
Cosmos 1513 Rocket 4.4 00:37:32 82° W 00:37:36 82° W 00:44:03 10° N
CZ-2D R/B 3.8 00:33:39 10° NE 00:38:01 24° E 00:38:05 24° E
Cosmos 1072 Rocket 4.4 00:39:08 75° WNW 00:39:08 75° WNW 00:45:08 10° N
Okean 2 Rocket 4.4 00:41:46 37° NE 00:41:46 37° NE 00:44:48 10° NNE
Meteor 2-9 Rocket 4.3 00:41:29 70° NNW 00:41:29 70° NNW 00:46:36 10° N
GEOS 3 Rocket 4.0 00:38:12 10° NE 00:42:46 59° ENE 00:42:46 59° ENE
Cosmos 2297 Rocket 3.4 00:45:36 30° E 00:45:36 30° E 00:50:00 10° NE
Cosmos 2219 4.2 00:45:50 35° E 00:45:50 35° E 00:50:21 10° NE
Cosmos 1975 Rocket 4.4 00:42:47 10° NNW 00:45:36 37° NNW 00:45:36 37° NNW
Cosmos 2333 Rocket 2.6 00:43:28 10° NNW 00:48:12 56° WNW 00:48:12 56° WNW
Helios 1B rocket 3.9 00:46:21 10° N 00:48:49 36° N 00:48:49 36° N
Cosmos 44 Rocket 3.8 00:50:45 10° NNW 00:55:08 60° NNE 00:55:08 60° NNE
Cosmos 1503 Rocket 4.4 00:56:39 56° NW 00:56:39 56° NW 01:01:33 10° NNE
Cosmos 2237 Rocket 2.9 00:53:01 10° NNW 00:58:30 48° ENE 00:59:51 40° E
Cosmos 2151 Rocket 4.3 01:12:29 50° NNE 01:12:29 50° NNE 01:15:51 10° NNE
Meteor 1-12 Rocket 4.2 01:11:28 86° SSW 01:11:37 89° W 01:17:40 10° N
Timation 2 Rocket 3.7 01:14:34 81° SSW 01:14:55 89° WNW 01:21:02 10° NNE
In-Cosmos 22 4.1 01:13:30 10° N 01:19:09 82° E 01:19:15 82° E
Meteor 1-15 Rocket 4.5 01:22:53 55° ESE 01:23:25 58° E 01:28:56 10° NNE
SJ 16-02 3.2 01:25:10 23° E 01:25:10 23° E 01:28:30 10° NE
Meteor 2-13 Rocket 4.3 01:27:18 10° N 01:33:25 85° W 01:34:11 70° S
Cosmos 2227 Rocket 2.2 01:33:34 63° SE 01:33:57 65° ESE 01:39:35 10° NNE
Cosmos 1538 Rocket 3.9 01:30:27 10° NNW 01:35:39 81° ENE 01:35:51 79° ESE
Cosmos 2195 Rocket 4.4 01:29:44 10° N 01:36:04 82° W 01:37:03 66° SSW
MOZ.5/SAFIR/RUBIN 5/SL-8 4.1 01:37:00 61° NW 01:37:00 61° NW 01:41:04 10° NNW
Cosmos 1025 Rocket 4.2 01:33:27 10° NNW 01:36:08 34° NW 01:36:08 34° NW
Resurs 1-4 Rocket 2.0 01:33:47 10° NNE 01:39:06 80° ESE 01:39:24 76° SSE
Cosmos 1674 3.9 01:37:14 10° N 01:39:47 40° NNE 01:39:47 40° NNE
Cosmos 1733 4.5 01:42:54 36° ENE 01:42:54 36° ENE 01:45:57 10° NNE
NOSS 0 Rocket 4.1 01:38:44 10° NW 01:44:40 54° WSW 01:44:40 54° WSW
ATLAS 3B R/B 4.4 01:40:56 12° W 01:45:38 23° NNW 01:50:53 10° NNE
Cosmos 2279 Rocket 4.1 01:44:46 48° SSE 01:46:24 67° E 01:52:32 10° NNE
USA 215 3.3 01:43:29 10° NE 01:50:00 65° SE 01:51:29 51° S
Cosmos 2026 Rocket 3.8 01:44:03 10° N 01:50:07 75° W 01:51:08 61° SSW
Lacrosse 4 Rocket 4.0 01:49:19 11° WNW 01:50:18 12° NW 01:52:02 10° NNW
Cosmos 1634 Rocket 3.9 01:50:27 59° SW 01:51:32 72° W 01:57:47 10° N
Cosmos 1627 Rocket 4.4 01:46:37 10° NNW 01:52:42 68° W 01:53:40 59° SW
Cosmos 2082 4.0 01:53:29 47° SSE 01:54:33 54° ESE 02:00:01 10° NNE
Cosmos 2219 Rocket 3.9 01:50:35 10° NW 01:52:54 18° WNW 01:52:54 18° WNW
Cosmos 2344 4.4 01:46:17 10° NW 01:56:09 83° SW 02:09:59 10° SSE
IRAS Rocket 4.2 01:56:59 60° WSW 01:57:17 61° WSW 02:02:49 10° NNW
SL-4 R/B 3.3 01:58:02 22° NNW 01:59:31 32° NNE 02:02:37 10° E
Cosmos 2142 Rocket 4.4 02:00:56 53° SSW 02:02:33 80° W 02:08:58 10° N
Meteor 1-24 Rocket 3.9 02:00:59 10° N 02:06:27 63° ENE 02:08:55 31° SSE
SL-16 R/B 2.6 02:01:32 10° NNW 02:07:12 62° ENE 02:12:33 11° SE
CBERS-1 4.2 02:02:49 10° NNE 02:07:55 65° ESE 02:09:09 49° SSE
Meteor 2-5 Rocket 3.6 02:04:31 10° N 02:10:12 89° E 02:11:59 46° S
Cosmos 1898 Rocket 4.2 02:11:42 34° SSE 02:13:23 45° ESE 02:18:21 10° NNE
SL-16 R/B 2.7 02:13:42 46° SW 02:14:43 50° W 02:20:48 10° NNW
ARIANE 5 R/B 3.7 02:10:31 10° NNE 02:15:20 36° E 02:18:02 22° SSE
NPP 3.8 02:12:00 10° N 02:17:18 58° WNW 02:18:22 49° WSW
IDEFIX/ARIANE 42P 4.4 02:13:50 10° NE 02:18:06 25° E 02:21:55 12° SE
CZ-2D R/B 2.6 02:13:00 10° N 02:18:18 49° WNW 02:19:24 43° WSW
Cosmos 1680 Rocket 3.8 02:13:45 10° NNW 02:18:58 66° ENE 02:22:57 17° SSE
NOSS 3-1 (C) 3.9 02:17:24 34° SSE 02:19:07 44° ESE 02:24:52 10° NE
USA 267 4.0 02:15:19 10° ESE 02:21:36 52° NNE 02:27:54 10° NW
AQUA 3.9 02:19:06 10° N 02:23:46 57° WNW 02:24:27 52° WSW
Cosmos 990 Rocket 4.2 02:23:20 41° SSE 02:25:00 63° ESE 02:30:08 10° NNE
Cosmos 1607 4.1 02:19:17 10° NNW 02:25:47 82° NE 02:32:16 10° SE
Cosmos 1766 3.8 02:26:32 46° WNW 02:26:32 46° WNW 02:29:59 10° N
ADEOS II 2.0 02:21:19 10° NNE 02:26:37 84° ESE 02:28:23 43° S
Cosmos 2263 Rocket 3.9 02:23:53 13° SSE 02:27:32 24° ESE 02:31:57 10° NE
Meteor 1-22 Rocket 3.9 02:27:12 48° SSW 02:28:44 82° W 02:34:04 10° N
Cosmos 2297 Rocket 2.9 02:27:24 34° W 02:29:00 41° WNW 02:34:21 10° NNE
Cosmos 2219 4.1 02:27:45 30° W 02:29:23 36° NW 02:34:33 10° N
IRS-1D 3.4 02:25:23 10° N 02:30:26 76° WNW 02:31:54 47° SSW
Okean 1-7 Rocket 3.7 02:28:39 10° N 02:33:03 70° E 02:35:04 31° SSE
IRS-1C 4.2 02:30:53 10° NNE 02:36:14 74° ESE 02:38:42 33° S
TIMED 4.4 02:33:01 10° NNW 02:37:25 86° ENE 02:39:36 29° SSE
Meteor 1-28 Rocket 3.8 02:36:22 27° SE 02:38:12 57° ENE 02:41:57 10° N
Okean 1 Rocket 4.2 02:38:14 28° WNW 02:38:17 28° WNW 02:42:02 10° NNW
Cosmos 1626 2.2 02:35:27 10° NNW 02:38:56 58° W 02:38:56 58° W
Cosmos 2266 Rocket 4.0 02:33:42 10° N 02:40:08 86° E 02:45:02 18° S
Cosmos 1655 Rocket 3.9 02:34:43 10° NNW 02:40:58 72° W 02:44:27 27° S
Cosmos 2237 Rocket 3.3 02:37:41 10° NW 02:41:36 25° W 02:41:36 25° W
Cosmos 1470 2.8 02:41:43 48° S 02:42:43 77° E 02:46:42 10° N
CZ-4B R/B 3.7 02:39:04 10° N 02:43:40 48° WNW 02:44:50 39° WSW
SL-08 R/B 3.4 02:43:56 19° SSE 02:47:29 86° ENE 02:52:29 10° NNW
Cosmos 923 Rocket 4.2 02:43:50 10° NNW 02:49:00 52° WSW 02:51:06 33° SSW
USA 229 DEB 3.7 02:48:34 28° SSW 02:52:07 69° ESE 02:58:53 10° NE
USA 229 3.7 02:48:39 28° SSW 02:52:11 68° ESE 02:58:56 10° NE
Cosmos 2098 Rocket 3.5 02:50:13 10° NNW 02:55:05 74° W 02:59:34 18° S
Cosmos 158 Rocket 4.1 02:51:33 10° NNW 02:56:49 59° WSW 03:00:32 20° S
OPS 8737 4.4 02:56:59 52° SW 02:57:45 77° NW 03:00:52 10° NNE
NOSS 2-3 (C) 4.2 03:01:07 26° S 03:03:12 48° ESE 03:07:48 10° NE
NOSS 3-1 (A) 3.6 03:00:07 24° S 03:03:20 57° ESE 03:09:22 10° NE
SJ 16-02 2.3 03:02:10 29° W 03:03:25 34° WNW 03:07:29 10° N
ERBS 2.2 03:00:18 10° NW 03:03:33 55° SW 03:06:44 10° SSE
SL-14 R/B 4.0 03:00:03 10° NNW 03:03:35 33° W 03:03:48 33° W
SL-23 DEB 4.3 03:03:12 10° WNW 03:09:26 54° SW 03:13:11 10° SE
Cosmos 858 Rocket 4.5 03:07:27 26° SSW 03:10:27 79° WNW 03:15:46 10° NNE
Cosmos 1455 Rocket 3.6 03:11:32 30° WSW 03:13:05 41° WNW 03:17:17 10° N
Cosmos 1943 4.2 03:08:28 10° NNW 03:13:56 50° ENE 03:19:22 10° SE
Cosmos 1809 Rocket 4.4 03:08:04 10° N 03:14:11 83° W 03:20:17 10° S
MSX 4.4 03:08:40 10° NNE 03:14:21 58° E 03:20:01 10° S
Cosmos 1758 3.5 03:13:25 31° SW 03:15:03 53° WNW 03:19:00 10° N
Cosmos 1626 Rocket 3.5 03:11:03 10° N 03:15:23 89° E 03:19:42 10° S
Resurs 1-4 Rocket 4.0 03:15:17 10° NNW 03:18:13 15° WNW 03:20:28 12° W
Cosmos 2227 Rocket 3.8 03:15:24 15° W 03:18:30 22° NW 03:22:54 10° N
Spot 4 Rocket 4.0 03:13:46 10° NNE 03:18:58 86° WNW 03:23:00 17° SSW
Meteor 1-21 Rocket 4.3 03:13:36 10° N 03:19:12 79° E 03:24:43 10° SSE
SeaSat 1 3.1 03:18:24 10° NE 03:23:14 52° ESE 03:27:42 12° S
Landsat 5 3.8 03:19:58 10° SSE 03:23:47 62° ENE 03:27:45 10° N
Cosmos 1461 3.8 03:23:26 22° WSW 03:25:44 40° NW 03:30:04 10° NNE
CZ-2C R/B 2.8 03:23:08 10° NNE 03:27:02 78° ESE 03:30:09 15° S
CZ-2D R/B 3.5 03:24:37 10° N 03:28:37 60° WNW 03:31:10 21° SSW
Cosmos 2227 4.3 03:24:45 17° SSW 03:29:18 87° ESE 03:35:07 10° NNE
FALCON 9 DEB 3.5 03:26:56 10° NW 03:30:25 66° NNE 03:33:51 10° ESE
ATLAS CENTAUR R/B 3.8 03:28:23 10° SSE 03:31:12 17° ESE 03:33:55 10° ENE
Cosmos 1340 Rocket 3.7 03:29:56 23° WSW 03:31:40 33° WNW 03:35:18 10° N
ATLAS 3B CENTAUR R/B 4.0 03:27:04 17° WSW 03:32:17 25° SSW 03:37:12 10° SSE
USA 215 3.9 03:26:40 10° NE 03:32:51 47° NNW 03:38:49 11° W
Cosmos 1758 Rocket 4.4 03:29:07 10° N 03:33:20 51° ENE 03:37:31 10° SSE
ERS-2 2.3 03:31:26 10° SSE 03:35:03 74° ENE 03:38:42 10° N
Cosmos 2228 4.4 03:31:57 10° SSE 03:36:00 39° E 03:40:06 10° NNE
Cosmos 724 4.3 03:30:43 10° NW 03:36:45 86° WSW 03:42:52 10° SSE
Meteor 2-21 4.4 03:31:14 10° NNW 03:37:13 63° W 03:43:11 10° S
Cosmos 1953 2.4 03:35:03 17° SSW 03:37:57 59° W 03:41:58 10° N
SL-4 R/B 1.7 03:35:52 10° WNW 03:39:10 48° SW 03:42:28 10° SE
Cosmos 1726 2.5 03:38:38 19° SW 03:40:55 44° WNW 03:44:28 10° N
Cosmos 1908 3.5 03:39:14 10° S 03:43:06 71° E 03:47:01 10° NNE
Meteor 1-16 Rocket 4.1 03:38:49 10° S 03:44:10 88° W 03:49:41 10° N
Cosmos 2285 Rocket 4.3 03:39:35 10° S 03:45:51 70° ESE 03:52:07 10° NNE
H-2A R/B 2.0 03:45:22 10° S 03:49:27 59° WSW 03:53:30 10° NNW
Cosmos 2150 Rocket 4.2 03:45:35 10° SSW 03:50:42 75° ESE 03:55:55 10° NNE
SL-16 R/B 3.5 03:46:47 10° NW 03:50:45 20° W 03:54:15 12° SW
Cosmos 1937 Rocket 4.3 03:47:07 15° WSW 03:51:00 36° WNW 03:55:55 10° N
ARIANE 5 R/B 3.6 03:49:47 10° N 03:54:19 31° WNW 03:58:22 12° WSW
Cosmos 1825 Rocket 3.8 03:51:36 10° N 03:55:57 72° E 04:00:14 10° SSE
IDEFIX/ARIANE 42P 3.1 03:52:57 10° N 03:57:50 42° WNW 04:02:42 10° SW
CZ-4C R/B 3.3 03:55:51 10° S 03:58:50 38° W 04:01:56 10° NNW
Cosmos 1328 3.8 03:56:20 10° N 04:00:21 88° W 04:04:21 10° S
NOSS 2-3 (E) 4.1 03:57:58 13° WSW 04:01:39 51° NW 04:06:33 10° NNE
CZ-4B R/B 2.5 03:58:43 10° SSE 04:01:55 47° ENE 04:05:03 10° N
Cosmos 1953 Rocket 4.4 03:57:33 10° N 04:01:59 55° ENE 04:06:23 10° SSE
USA 267 3.3 03:58:11 10° SSE 04:04:35 55° SW 04:11:00 10° NW
ADEOS II 4.0 04:02:51 10° NNW 04:05:35 14° WNW 04:08:20 10° W
NOSS 3-1 (C) 4.3 04:04:55 10° WSW 04:10:03 36° NW 04:15:58 10° NNE
Cosmos 2263 Rocket 2.6 04:05:43 10° SW 04:11:06 50° WNW 04:16:32 10° NNE
Cosmos 1703 3.4 04:07:14 10° NNW 04:11:08 54° W 04:14:59 10° S
Cosmos 1553 Rocket 4.0 04:07:30 10° SSW 04:13:30 65° W 04:19:34 10° N
Cosmos 372 Rocket 4.4 04:08:33 10° SW 04:13:33 47° WNW 04:18:37 10° N
SAR-Lupe-4 3.6 04:13:32 10° SSE 04:17:06 84° ENE 04:20:42 10° NNW
OAO 3 Rocket 4.5 04:16:03 10° SW 04:20:15 28° S 04:24:27 10° ESE
Cosmos 482 Debris 4.3 04:16:06 10° WNW 04:21:28 69° SW 04:24:39 10° SE
Cosmos 1606 Rocket 3.7 04:17:42 10° SSW 04:22:07 65° W 04:26:36 10° N
Aureole 3 4.2 04:17:42 10° SSW 04:22:39 73° W 04:29:01 10° N
Cosmos 1300 3.1 04:20:38 10° S 04:24:25 69° E 04:28:14 10° NNE
SL-08 ROCKET BODY 4.4 04:18:25 10° NNW 04:24:29 70° W 04:30:25 10° S
Cosmos 1745 Rocket 4.0 04:18:16 10° N 04:24:34 75° W 04:30:46 10° S
CZ-2C R/B 2.3 04:20:15 10° N 04:24:47 66° WNW 04:29:21 10° SSW
Cosmos 1125 Rocket 3.5 04:21:24 10° SSW 04:26:37 82° WNW 04:31:55 10° NNE
